Regional Weather Roundup
Issued by NWS

Home | Current Version | Previous Version | Graphics & Text | Print | Product List | Glossary On
Versions: 1 2 3 4 5 6 7 8 9 10 11 12 13 14 15 16 17 18 19 20 21 22 23 24 25 26 27 28 29 30 31 32 33 34 35 36 37 38 39 40 41 42 43 44 45 46 47 48 49 50
000
ASUS43 KBIS 262320
RWRND

NORTH DAKOTA REGIONAL WEATHER ROUNDUP
NATIONAL WEATHER SERVICE BISMARCK ND
500 PM CST FRI DEC 26 2014

NOTE: "FAIR" INDICATES FEW OR NO CLOUDS BELOW 12,000 FEET WITH NO
SIGNIFICANT WEATHER AND/OR OBSTRUCTIONS TO VISIBILITY.


NDZ001>003-009>011-017-270000-
NORTHWEST NORTH DAKOTA

CITY           SKY/WX    TMP DP  RH WIND       PRES   REMARKS
WILLISTON      CLOUDY    19  13  77 SE5       30.15S WCI  12
MINOT          MOCLDY     9   5  84 CALM      30.17S
MINOT AFB      CLOUDY     6   2  82 N7        30.18R WCI  -6
$$

NDZ018>021-031>035-040>046-270000-
SOUTHWEST NORTH DAKOTA

CITY           SKY/WX    TMP DP  RH WIND       PRES   REMARKS
BISMARCK       PTCLDY    14   8  77 N6        30.19R WCI   5
DICKINSON      PTCLDY    21  12  68 NE5       30.09R WCI  15
GARRISON         N/A     13   7  77 NW6       30.15R WCI   4
HETTINGER ARPT PTCLDY    20  11  68 NW6       30.11S WCI  12
$$

NDZ004>008-012>016-024-026-027-054-270000-
NORTHEAST NORTH DAKOTA

CITY           SKY/WX    TMP DP  RH WIND       PRES   REMARKS
GRAND FORKS    CLEAR      9   3  77 NW9       30.23R WCI  -4
GRND FRKS AFB  CLEAR      8   4  81 NW8       30.24R WCI  -4
DEVILS LAKE    CLEAR      7  -2  66 NW6       30.18R WCI  -3
$$

NDZ022-023-025-028>030-036>039-047>053-270000-
SOUTHEAST NORTH DAKOTA

CITY           SKY/WX    TMP DP  RH WIND       PRES   REMARKS
FARGO          CLOUDY    22  15  75 N13       30.20R WCI  10
JAMESTOWN      PTCLDY     7   3  84 N7        30.18F WCI  -5
$$




USA.gov is the U.S. government's official web portal to all federal, state and local government web resources and services.